Volver al catálogo

STARLINK-5637

ActivoComunicacionesVLEO
NORAD 55432·PAYLOAD·🇺🇸 United States

Lanzado Jan 31, 2023 desde Vandenberg Space Force Base

Loading…

Próximos Pases (próximas 24 horas)

TLE

ActualizadoSource: CelesTrak SupGP

Época: Sep 15, 2026, 02:33 UTC

1 55432C 23014AT  26258.10673611  .00074204  00000+0  62191-2 0  2582
2 55432  70.0017 346.8420 0003464 267.7734  41.2038 14.98289310    10

Sigue STARLINK-5637 en tiempo real con AllMySat

Download on the App Store